Starlink 3183

operational
NORAD ID: 51134 Int'l Des: 2022-005 Owner: SPXS Country: US Constellation: starlink
LEOCIRCULAR

关于 Starlink 3183

正在加载描述...

实时位置

正在加载3D地球...

即将过境

高度历史

Altitude vs Time

uPlot chart will show altitude changes over time

两行轨道根数

1 51134U 22005AG 25306.50002315 .01408430 00000-0 71077-2 0 9999
2 51134 53.2160 132.2648 0000331 130.2820 156.3562 15.78318603 5850
Epoch: Nov 2, 2025 • Age: 13 hours

当前状态

高度 335.6 km
速度 7.71 km/s
星下点 44.50°N, 154.4°W
发射日期 Jan 19, 2022
运行时间 3.7 years
类型 internet

技术详情

分类 Payload
质量 297.00 kg
干质量 275.00 kg
总质量 297.00 kg
长度 0.20 m
直径 2.80 m
跨度 9.00 m
形状 Box + pan
制造商 SPXS
平台类型 Starlink
阶段状态 In Orbit
所有者/国家 SPXS/US

大型星座

Loading constellations...